Time,TemperatureF,DewpointF,PressureIn,WindDirection,WindDirectionDegrees,WindSpeedMPH,WindSpeedGustMPH,Humidity,HourlyPrecipIn,Conditions,Clouds,dailyrainin,SolarRadiationWatts/m^2,SoftwareType,DateUTC
2013-05-28 00:21:00,42.0,39.0,-100.00,WSW,249,8.0,19.0,89,0.00,,,0.58,1.000000,,2013-05-28 07:21:00,
2013-05-28 00:32:00,42.0,39.0,-100.00,WSW,249,8.0,19.0,89,0.00,,,0.58,1.000000,,2013-05-28 07:32:00,
2013-05-28 00:42:00,42.0,39.0,-100.00,WSW,249,8.0,19.0,89,0.00,,,0.58,1.000000,,2013-05-28 07:42:00,
2013-05-28 00:52:00,42.0,39.0,-100.00,WSW,249,8.0,19.0,89,0.00,,,0.58,1.000000,,2013-05-28 07:52:00,
2013-05-28 01:21:00,42.0,38.0,-100.00,SW,230,9.0,13.0,86,0.01,,,0.59,1.000000,,2013-05-28 08:21:00,
2013-05-28 01:32:00,42.0,38.0,-100.00,SW,230,9.0,13.0,86,0.01,,,0.59,1.000000,,2013-05-28 08:32:00,
2013-05-28 01:42:00,42.0,38.0,-100.00,SW,230,9.0,13.0,86,0.01,,,0.59,1.000000,,2013-05-28 08:42:00,
2013-05-28 01:51:00,42.0,38.0,-100.00,SW,230,9.0,13.0,86,0.01,,,0.59,1.000000,,2013-05-28 08:51:00,
2013-05-28 02:21:00,42.0,39.0,-100.00,WSW,250,5.0,14.0,88,0.00,,,0.59,1.000000,,2013-05-28 09:21:00,
2013-05-28 02:33:00,42.0,39.0,-100.00,WSW,250,5.0,14.0,88,0.00,,,0.59,1.000000,,2013-05-28 09:33:00,
2013-05-28 02:42:00,42.0,39.0,-100.00,WSW,250,5.0,14.0,88,0.00,,,0.59,1.000000,,2013-05-28 09:42:00,
2013-05-28 02:53:00,42.0,39.0,-100.00,WSW,250,5.0,14.0,88,0.00,,,0.59,1.000000,,2013-05-28 09:53:00,
2013-05-28 03:22:00,42.0,39.0,-100.00,WSW,256,7.0,10.0,89,0.00,,,0.59,1.000000,,2013-05-28 10:22:00,
2013-05-28 03:32:00,42.0,39.0,-100.00,WSW,256,7.0,10.0,89,0.00,,,0.59,1.000000,,2013-05-28 10:32:00,
2013-05-28 03:42:00,42.0,39.0,-100.00,WSW,256,7.0,10.0,89,0.00,,,0.59,1.000000,,2013-05-28 10:42:00,
2013-05-28 03:52:00,42.0,39.0,-100.00,WSW,256,7.0,10.0,89,0.00,,,0.59,1.000000,,2013-05-28 10:52:00,
2013-05-28 04:22:00,41.0,38.0,-100.00,West,259,3.0,13.0,90,0.00,,,0.59,1.000000,,2013-05-28 11:22:00,
2013-05-28 04:32:00,41.0,38.0,-100.00,West,259,3.0,13.0,90,0.00,,,0.59,1.000000,,2013-05-28 11:32:00,
2013-05-28 04:41:00,41.0,38.0,-100.00,West,259,3.0,13.0,90,0.00,,,0.59,1.000000,,2013-05-28 11:41:00,
2013-05-28 04:52:00,41.0,38.0,-100.00,West,259,3.0,13.0,90,0.00,,,0.59,1.000000,,2013-05-28 11:52:00,
2013-05-28 05:21:00,41.0,37.0,-100.00,WSW,245,6.0,14.0,86,0.00,,,0.59,1.000000,,2013-05-28 12:21:00,
2013-05-28 05:31:00,41.0,37.0,-100.00,WSW,245,6.0,14.0,86,0.00,,,0.59,1.000000,,2013-05-28 12:31:00,
2013-05-28 05:42:00,41.0,37.0,-100.00,WSW,245,6.0,14.0,86,0.00,,,0.59,1.000000,,2013-05-28 12:42:00,
2013-05-28 05:52:00,41.0,37.0,-100.00,WSW,245,6.0,14.0,86,0.00,,,0.59,1.000000,,2013-05-28 12:52:00,
2013-05-28 06:21:00,41.0,36.0,-100.00,NNW,334,2.0,8.0,83,0.00,,,0.58,4.000000,,2013-05-28 13:21:00,
2013-05-28 06:32:00,41.0,36.0,-100.00,NNW,334,2.0,8.0,83,0.00,,,0.58,4.000000,,2013-05-28 13:32:00,
2013-05-28 06:42:00,41.0,36.0,-100.00,NNW,334,2.0,8.0,83,0.00,,,0.58,4.000000,,2013-05-28 13:42:00,
2013-05-28 06:52:00,41.0,36.0,-100.00,NNW,334,2.0,8.0,83,0.00,,,0.58,4.000000,,2013-05-28 13:52:00,
2013-05-28 07:21:00,42.0,38.0,-100.00,NW,307,3.0,5.0,87,0.00,,,0.52,51.000000,,2013-05-28 14:21:00,
2013-05-28 07:32:00,42.0,38.0,-100.00,NW,307,3.0,5.0,87,0.00,,,0.52,51.000000,,2013-05-28 14:32:00,
2013-05-28 07:41:00,42.0,38.0,-100.00,NW,307,3.0,5.0,87,0.00,,,0.52,51.000000,,2013-05-28 14:41:00,
2013-05-28 07:51:00,42.0,38.0,-100.00,NW,307,3.0,5.0,87,0.00,,,0.52,51.000000,,2013-05-28 14:51:00,
2013-05-28 08:21:00,47.0,40.0,-100.00,West,262,7.0,11.0,77,0.00,,,0.48,294.000000,,2013-05-28 15:21:00,
2013-05-28 08:32:00,47.0,40.0,-100.00,West,262,7.0,11.0,77,0.00,,,0.48,294.000000,,2013-05-28 15:32:00,
2013-05-28 08:43:00,47.0,40.0,-100.00,West,262,7.0,11.0,77,0.00,,,0.48,294.000000,,2013-05-28 15:43:00,
2013-05-28 08:52:00,47.0,40.0,-100.00,West,262,7.0,11.0,77,0.00,,,0.48,294.000000,,2013-05-28 15:52:00,
2013-05-28 09:22:00,46.0,41.0,-100.00,West,267,7.0,12.0,83,0.00,,,0.47,397.000000,,2013-05-28 16:22:00,
2013-05-28 09:33:00,46.0,41.0,-100.00,West,267,7.0,12.0,83,0.00,,,0.47,397.000000,,2013-05-28 16:33:00,
2013-05-28 09:42:00,46.0,41.0,-100.00,West,267,7.0,12.0,83,0.00,,,0.47,397.000000,,2013-05-28 16:42:00,
2013-05-28 09:52:00,46.0,41.0,-100.00,West,267,7.0,12.0,83,0.00,,,0.47,397.000000,,2013-05-28 16:52:00,
2013-05-28 10:22:00,50.0,41.0,-100.00,West,272,7.0,15.0,70,0.00,,,0.44,579.000000,,2013-05-28 17:22:00,
2013-05-28 10:32:00,50.0,41.0,-100.00,West,272,7.0,15.0,70,0.00,,,0.44,579.000000,,2013-05-28 17:32:00,
2013-05-28 10:41:00,50.0,41.0,-100.00,West,272,7.0,15.0,70,0.00,,,0.44,579.000000,,2013-05-28 17:41:00,
2013-05-28 10:51:00,50.0,41.0,-100.00,West,272,7.0,15.0,70,0.00,,,0.44,579.000000,,2013-05-28 17:51:00,
2013-05-28 11:21:00,52.0,37.0,-100.00,WSW,255,12.0,23.0,57,0.00,,,0.44,874.000000,,2013-05-28 18:21:00,
2013-05-28 11:32:00,52.0,37.0,-100.00,WSW,255,12.0,23.0,57,0.00,,,0.44,874.000000,,2013-05-28 18:32:00,
2013-05-28 11:42:00,52.0,37.0,-100.00,WSW,255,12.0,23.0,57,0.00,,,0.44,874.000000,,2013-05-28 18:42:00,
2013-05-28 11:52:00,52.0,37.0,-100.00,WSW,255,12.0,23.0,57,0.00,,,0.44,874.000000,,2013-05-28 18:52:00,
2013-05-28 12:21:00,53.0,37.0,-100.00,West,281,9.0,17.0,54,0.00,,,0.43,936.000000,,2013-05-28 19:21:00,
2013-05-28 12:32:00,53.0,37.0,-100.00,West,281,9.0,17.0,54,0.00,,,0.43,936.000000,,2013-05-28 19:32:00,
2013-05-28 12:41:00,53.0,37.0,-100.00,West,281,9.0,17.0,54,0.00,,,0.43,936.000000,,2013-05-28 19:41:00,
2013-05-28 12:52:00,53.0,37.0,-100.00,West,281,9.0,17.0,54,0.00,,,0.43,936.000000,,2013-05-28 19:52:00,
2013-05-28 13:22:00,56.0,39.0,-100.00,WSW,257,10.0,17.0,53,0.00,,,0.42,1041.000000,,2013-05-28 20:22:00,
2013-05-28 13:32:00,56.0,39.0,-100.00,WSW,257,10.0,17.0,53,0.00,,,0.42,1041.000000,,2013-05-28 20:32:00,
2013-05-28 13:42:00,56.0,39.0,-100.00,WSW,257,10.0,17.0,53,0.00,,,0.42,1041.000000,,2013-05-28 20:42:00,
2013-05-28 13:52:00,56.0,39.0,-100.00,WSW,257,10.0,17.0,53,0.00,,,0.42,1041.000000,,2013-05-28 20:52:00,
2013-05-28 14:21:00,57.0,38.0,-100.00,WSW,251,9.0,17.0,49,0.00,,,0.40,1044.000000,,2013-05-28 21:21:00,
2013-05-28 14:33:00,57.0,38.0,-100.00,WSW,251,9.0,17.0,49,0.00,,,0.40,1044.000000,,2013-05-28 21:33:00,
2013-05-28 14:43:00,57.0,38.0,-100.00,WSW,251,9.0,17.0,49,0.00,,,0.40,1044.000000,,2013-05-28 21:43:00,
2013-05-28 14:53:00,57.0,38.0,-100.00,WSW,251,9.0,17.0,49,0.00,,,0.40,1044.000000,,2013-05-28 21:53:00,
2013-05-28 15:22:00,59.0,37.0,-100.00,West,262,10.0,20.0,43,0.00,,,0.38,1010.000000,,2013-05-28 22:22:00,
2013-05-28 15:32:00,59.0,37.0,-100.00,West,262,10.0,20.0,43,0.00,,,0.38,1010.000000,,2013-05-28 22:32:00,
2013-05-28 15:42:00,59.0,37.0,-100.00,West,262,10.0,20.0,43,0.00,,,0.38,1010.000000,,2013-05-28 22:42:00,
2013-05-28 15:52:00,59.0,37.0,-100.00,West,262,10.0,20.0,43,0.00,,,0.38,1010.000000,,2013-05-28 22:52:00,
2013-05-28 16:21:00,60.0,36.0,-100.00,West,261,10.0,17.0,41,0.00,,,0.38,910.000000,,2013-05-28 23:21:00,
2013-05-28 16:32:00,60.0,36.0,-100.00,West,261,10.0,17.0,41,0.00,,,0.38,910.000000,,2013-05-28 23:32:00,
2013-05-28 16:42:00,60.0,36.0,-100.00,West,261,10.0,17.0,41,0.00,,,0.38,910.000000,,2013-05-28 23:42:00,
2013-05-28 16:52:00,60.0,36.0,-100.00,West,261,10.0,17.0,41,0.00,,,0.38,910.000000,,2013-05-28 23:52:00,
2013-05-28 17:21:00,61.0,34.0,-100.00,West,280,11.0,17.0,36,0.00,,,0.38,765.000000,,2013-05-29 00:21:00,
2013-05-28 17:32:00,61.0,34.0,-100.00,West,280,11.0,17.0,36,0.00,,,0.38,765.000000,,2013-05-29 00:32:00,
2013-05-28 17:41:00,61.0,34.0,-100.00,West,280,11.0,17.0,36,0.00,,,0.38,765.000000,,2013-05-29 00:41:00,
2013-05-28 17:52:00,61.0,34.0,-100.00,West,280,11.0,17.0,36,0.00,,,0.38,765.000000,,2013-05-29 00:52:00,
2013-05-28 18:22:00,61.0,34.0,-100.00,West,272,11.0,18.0,36,0.00,,,0.37,586.000000,,2013-05-29 01:22:00,
2013-05-28 18:32:00,61.0,34.0,-100.00,West,272,11.0,18.0,36,0.00,,,0.37,586.000000,,2013-05-29 01:32:00,
2013-05-28 18:41:00,61.0,34.0,-100.00,West,272,11.0,18.0,36,0.00,,,0.37,586.000000,,2013-05-29 01:41:00,
2013-05-28 18:52:00,61.0,34.0,-100.00,West,272,11.0,18.0,36,0.00,,,0.37,586.000000,,2013-05-29 01:52:00,
2013-05-28 19:21:00,60.0,35.0,-100.00,West,272,11.0,17.0,39,0.00,,,0.32,393.000000,,2013-05-29 02:21:00,
2013-05-28 19:32:00,60.0,35.0,-100.00,West,272,11.0,17.0,39,0.00,,,0.32,393.000000,,2013-05-29 02:32:00,
2013-05-28 19:42:00,60.0,35.0,-100.00,West,272,11.0,17.0,39,0.00,,,0.32,393.000000,,2013-05-29 02:42:00,
2013-05-28 19:51:00,60.0,35.0,-100.00,West,272,11.0,17.0,39,0.00,,,0.32,393.000000,,2013-05-29 02:51:00,
2013-05-28 20:21:00,56.0,38.0,-100.00,West,275,10.0,19.0,50,0.00,,,0.24,151.000000,,2013-05-29 03:21:00,
2013-05-28 20:33:00,56.0,38.0,-100.00,West,275,10.0,19.0,50,0.00,,,0.24,151.000000,,2013-05-29 03:33:00,
2013-05-28 20:43:00,56.0,38.0,-100.00,West,275,10.0,19.0,50,0.00,,,0.24,151.000000,,2013-05-29 03:43:00,
2013-05-28 20:53:00,56.0,38.0,-100.00,West,275,10.0,19.0,50,0.00,,,0.24,151.000000,,2013-05-29 03:53:00,
2013-05-28 21:23:00,52.0,37.0,-100.00,West,264,5.0,17.0,57,0.00,,,0.14,20.000000,,2013-05-29 04:23:00,
2013-05-28 21:33:00,52.0,37.0,-100.00,West,264,5.0,17.0,57,0.00,,,0.14,20.000000,,2013-05-29 04:33:00,
2013-05-28 21:42:00,52.0,37.0,-100.00,West,264,5.0,17.0,57,0.00,,,0.14,20.000000,,2013-05-29 04:42:00,
2013-05-28 21:52:00,52.0,37.0,-100.00,West,264,5.0,17.0,57,0.00,,,0.14,20.000000,,2013-05-29 04:52:00,
2013-05-28 22:22:00,51.0,39.0,-100.00,WSW,240,4.0,11.0,64,0.00,,,0.02,1.000000,,2013-05-29 05:22:00,
2013-05-28 22:32:00,51.0,39.0,-100.00,WSW,240,4.0,11.0,64,0.00,,,0.02,1.000000,,2013-05-29 05:32:00,
2013-05-28 22:42:00,51.0,39.0,-100.00,WSW,240,4.0,11.0,64,0.00,,,0.02,1.000000,,2013-05-29 05:42:00,
2013-05-28 22:52:00,51.0,39.0,-100.00,WSW,240,4.0,11.0,64,0.00,,,0.02,1.000000,,2013-05-29 05:52:00,
2013-05-28 23:21:00,50.0,40.0,-100.00,SW,235,5.0,7.0,69,0.00,,,0.01,1.000000,,2013-05-29 06:21:00,
2013-05-28 23:31:00,50.0,40.0,-100.00,SW,235,5.0,7.0,69,0.00,,,0.01,1.000000,,2013-05-29 06:31:00,
2013-05-28 23:42:00,50.0,40.0,-100.00,SW,235,5.0,7.0,69,0.00,,,0.01,1.000000,,2013-05-29 06:42:00,
2013-05-28 23:51:00,50.0,40.0,-100.00,SW,235,5.0,7.0,69,0.00,,,0.01,1.000000,,2013-05-29 06:51:00,